CREW DRAGON 1 (46920 NORAD) Tracking and Keplerian Element Data

This shows tracking and keplerian element data for the satellite.

Feedback or suggestion? Click here.




ElementValue
Catalog46920
NameCREW DRAGON 1
Epoch Orbit26542
Epoch Day18.72774306
Epoch Year2021
RAAN1.9657
Inclination51.6467
Eccentricity2.6E-05
Argument of Perigee277.3488
Mean Anonmoly76.8209
Mean Motion15.4930008
Decay Rate5.92E-06
L11 46920U 20084A 21018.72774306 .00000592 00000-0 18682-4 0 9998
L22 46920 51.6467 1.9657 0000260 277.3488 76.8209 15.49300080265428

Live tracking and technical data element details for CREW DRAGON 1 (NORAD 46920). CREW DRAGON 1 can be tracked NOW for your location showing map with azimuth and elevation plus other details from your city location.

Track the satellite on the map from your city or location and see movement details for azimuth, elevation, latitude, longitude, range, height, and movement on the map or in text.







IsCatalogInMostPopularTable: catalog: 46920, numindb: 30
Update: records affected: 1



GetName: 46920 CREW DRAGON 1

Hit Count: updated at: Tue, 19 Jan 2021 15:42:51 GMT